Regional Weather Roundup
Issued by NWS Mt. Holly, NJ

Home | Current Version | Previous Version | Text Only | Print | Product List | Glossary On
Versions: 1 2 3 4 5 6 7 8 9 10 11 12 13 14 15 16 17 18 19 20 21 22 23 24 25 26 27 28 29 30 31 32 33 34 35 36 37 38 39 40 41 42 43 44 45 46 47 48 49 50
000
ASUS41 KPHI 240911
RWRPHI

REGIONAL WEATHER ROUNDUP
NATIONAL WEATHER SERVICE MOUNT HOLLY NJ
500 AM EDT SUN MAY 24 2015

NOTE:  "FAIR" INDICATES FEW OR NO CLOUDS BELOW 12,000 FEET WITH NO
SIGNIFICANT WEATHER AND/OR OBSTRUCTIONS TO VISIBILITY.

 * = STATION DOES NOT REPORT PRECIPITATION (E.G. RAIN, SNOW, ETC.)
        OR FOG.

NJZ015>026-241000-
SOUTHERN NEW JERSEY

CITY           SKY/WX    TMP DP  RH WIND       PRES   REMARKS
POMONA         CLEAR     50  47  89 CALM      30.39S
RIO GRANDE*    CLEAR     50  43  76 CALM      30.41R
MILLVILLE      CLEAR     44  42  93 CALM      30.39S
WRIGHTSTOWN    CLEAR     46  46  99 CALM      30.36R
MOUNT HOLLY    CLEAR     46  44  93 CALM      30.38S
TRENTON        CLEAR     46  43  89 SW3       30.36S

$$
NJZ001>014-241000-
NORTHERN NEW JERSEY

CITY           SKY/WX    TMP DP  RH WIND       PRES   REMARKS
SUSSEX         CLEAR     38  34  85 CALM      30.35S
ANDOVER*         N/A     41  39  93 CALM      30.35S
MORRISTOWN     CLEAR     41  37  87 CALM      30.36S
NEWARK         PTCLDY    51  40  65 SW7       30.36S
TETERBORO      CLEAR     50  38  63 S3        30.34S
CALDWELL       CLEAR     45  36  70 CALM      30.35S
SOMERVILLE     CLEAR     38  34  85 CALM      30.35S
ALLAIRE*       CLEAR     50  43  76 SW5       30.37S
TOMS RIVER*    CLEAR    N/A N/A N/A CALM      30.38S

$$
PAZ043-044-047-054-055-060>062-066>071-241000-
EASTERN PENNSYLVANIA

CITY           SKY/WX    TMP DP  RH WIND       PRES   REMARKS
PHILADELPHIA   PTCLDY    53  47  79 S6        30.38S
NORTH PHILA    CLEAR     49  43  80 S3        30.39S
BLUE BELL      CLEAR     41  39  93 CALM      30.36S
DOYLESTOWN     CLEAR     46  38  73 CALM      30.36S
QUAKERTOWN*    CLEAR     39  36  87 CALM      30.36F
POTTSTOWN      CLEAR     43  39  86 CALM      30.38S
LANCASTER      CLEAR     44  41  89 CALM      30.36S
COATESVILLE    CLEAR     50  45  81 W5        30.38S
READING        CLEAR     45  38  76 CALM      30.35F
ALLENTOWN      CLEAR     40  34  79 CALM      30.36S
MOUNT POCONO   CLEAR     46  32  58 W7        30.33F
HAZLETON       CLEAR     39  36  87 CALM      30.37F
WILKES BARRE   CLEAR     42  35  76 CALM      30.34S

$$
DEZALL-MDZ008-012-015-019-020-241000-
DELAWARE AND EASTERN MARYLAND

CITY           SKY/WX    TMP DP  RH WIND       PRES   REMARKS
WILMINGTON     CLEAR     50  44  80 S3        30.39S
DOVER          CLEAR     53  53 100 S7        30.35S
GEORGETOWN     CLEAR     48  46  93 CALM      30.40S
EASTON         CLEAR     54  54 100 CALM      30.42S
PATUXENT       CLEAR     54  51  90 CALM      30.38S
OCEAN CITY     CLEAR     46  44  93 CALM      30.41S
WALLOPS ISLAND CLEAR     56  53  90 S7        30.41S
CAMBRIDGE      CLEAR     52  48  87 SE3       30.38S
SALISBURY      CLEAR     45  43  93 CALM      30.40S

$$
PAZ001-021-NYZ056-072-MDZ011-DCZ001-241000-
OTHER NEARBY LOCATIONS

CITY           SKY/WX    TMP DP  RH WIND       PRES   REMARKS
HARRISBURG     PTCLDY    49  42  77 CALM      30.35F
STATE COLLEGE  CLEAR     44  35  70 SW3       30.35S
WILLIAMSPORT   CLEAR     40  37  89 CALM      30.35F
BINGHAMTON     CLEAR     48  32  53 SW9       30.31S
NEW YORK CITY  CLEAR     57  37  47 W6        30.37S
BALTIMORE      PTCLDY    50  44  80 CALM      30.38R
WASHINGTON DC  PTCLDY    58  47  66 SW3       30.39R

$$


USA.gov is the U.S. government's official web portal to all federal, state and local government web resources and services.